EW2027 Weather Reports


Display with metric or nautical units.
time (UTC)temp
F
wind
direction
speed
MPH
gust
MPH
rain 1hr
in
rain 24hr
in
rain mn
in
humidity
%
barometer
mb
20260505003704 77 154 6.0 9.0 0.00 0.00 0.00 64 1003.5
20260505003204 78 136 5.0 15.0 0.00 0.00 0.00 64 1003.5
20260505000704 78 139 7.0 14.0 0.00 0.00 0.00 62 1003.5
20260505000204 78 150 6.0 15.0 0.00 0.00 0.00 62 1003.5
20260504233703 79 166 7.0 16.0 0.00 0.00 0.00 60 1004.1
20260504230703 80 155 6.0 16.0 0.00 0.00 0.00 58 1004.3
20260504230203 80 160 7.0 16.0 0.00 0.00 0.00 58 1004.4
20260504223704 81 168 4.0 15.0 0.00 0.00 0.00 58 1004.6
20260504223203 81 164 5.0 15.0 0.00 0.00 0.00 58 1004.5
20260504220703 80 182 7.0 17.0 0.00 0.00 0.00 56 1004.4
20260504213704 81 183 5.0 15.0 0.00 0.00 0.00 55 1004.6
20260504210703 81 189 7.0 12.0 0.00 0.00 0.00 54 1005.0
20260504210204 81 184 7.0 20.0 0.00 0.00 0.00 53 1005.1
20260504203703 82 175 8.0 17.0 0.00 0.00 0.00 52 1005.4
20260504203203 83 156 9.0 18.0 0.00 0.00 0.00 51 1005.4
20260504200703 82 172 3.0 16.0 0.00 0.00 0.00 54 1005.8
20260504200203 81 210 5.0 20.0 0.00 0.00 0.00 52 1006.0
20260504193703 81 165 10.0 24.0 0.00 0.00 0.00 51 1006.2
20260504193203 81 177 4.0 18.0 0.00 0.00 0.00 51 1006.1
20260504190704 80 182 6.0 16.0 0.00 0.00 0.00 51 1006.4
20260504190204 80 216 5.0 21.0 0.00 0.00 0.00 51 1006.6
20260504183703 80 184 7.0 16.0 0.00 0.00 0.00 52 1007.0
20260504183204 80 180 6.0 21.0 0.00 0.00 0.00 52 1007.1
20260504180204 79 185 5.0 17.0 0.00 0.00 0.00 51 1007.6
20260504173704 79 171 6.0 16.0 0.00 0.00 0.00 52 1007.7
20260504173203 79 191 4.0 20.0 0.00 0.00 0.00 51 1007.8
20260504170704 79 206 5.0 13.0 0.00 0.00 0.00 50 1007.8
20260504170204 78 198 4.0 16.0 0.00 0.00 0.00 50 1007.8
20260504160203 76 196 5.0 16.0 0.00 0.00 0.00 53 1008.4
20260504150703 74 182 5.0 12.0 0.00 0.00 0.00 53 1009.0
20260504150204 74 180 3.0 10.0 0.00 0.00 0.00 54 1009.0
20260504130704 65 174 3.0 8.0 0.00 0.00 0.00 63 1009.6
20260504120204 61 130 3.0 7.0 0.00 0.00 0.00 65 1009.7
20260504110704 61 155 2.0 7.0 0.00 0.00 0.00 64 1009.9
20260504110204 61 141 3.0 7.0 0.00 0.00 0.00 63 1009.9
20260504100203 63 155 3.0 5.0 0.00 0.00 0.00 59 1010.5
20260504080703 66 161 3.0 10.0 0.00 0.00 0.00 52 1011.1
20260504080203 66 162 2.0 9.0 0.00 0.00 0.00 52 1011.3
20260504070203 68 157 2.0 10.0 0.00 0.00 0.00 48 1011.7
20260504050704 69 179 2.0 7.0 0.00 0.00 0.00 47 1012.6
20260504050204 69 159 3.0 13.0 0.00 0.00 0.00 48 1012.7
20260504043703 69 180 5.0 9.0 0.00 0.00 0.00 47 1012.8
20260504043203 69 186 4.0 13.0 0.00 0.00 0.00 47 1012.8
20260504040703 70 161 3.0 9.0 0.00 0.00 0.00 45 1013.1
20260504040203 70 180 3.0 12.0 0.00 0.00 0.00 45 1013.1
20260504033703 71 168 6.0 12.0 0.00 0.00 0.00 43 1013.0
20260504033203 71 183 4.0 15.0 0.00 0.00 0.00 43 1013.0
20260504030703 72 168 4.0 8.0 0.00 0.00 0.00 42 1013.0
20260504030204 72 159 3.0 17.0 0.00 0.00 0.00 42 1013.0
20260504023703 73 191 3.0 9.0 0.00 0.00 0.00 40 1012.8
20260504023204 73 184 3.0 17.0 0.00 0.00 0.00 40 1012.8
20260504013204 77 193 2.0 9.0 0.00 0.00 0.00 36 1012.4
20260504010703 78 189 2.0 6.0 0.00 0.00 0.00 33 1012.3
20260504010204 79 219 2.0 10.0 0.00 0.00 0.00 33 1012.3